Location: St. Louis
(38.6270°N, 90.1994°W)
Time: 11:22:55
(UTC-06:00)

A-11 Canister half - Pass Details

Date: 12 December 2021
Orbit: 1524 x 1684 km, 47.3° (Epoch: 25 January)

Event Time Altitude Azimuth Distance (km) Brightness Sun altitude
Rises 06:25:19 0° 299° (WNW) 4,922 - -8.6°
Exits shadow 06:28:23 - 294° (WNW) 4,008 10.5 -8.0°
Reaches altitude 10° 06:28:41 10° 294° (WNW) 3,917 10.4 -8.0°
Maximum altitude 06:37:55 44° 227° (SW) 2,141 9.6 -6.3°
Drops below altitude 10° 06:46:52 10° 159° (SSE) 3,792 11.8 -4.7°
Sets 06:50:05 0° 153° (SSE) 4,752 12.6 -4.2°
